Weather History for Osaka Airport, Japan

Change the Weather History Date:

Tuesday, October 23, 2012

  Actual Average Record
Temperature  
Mean Temperature 63 °F -  
Max Temperature 69 °F 64 °F 78 °F (1997)
Min Temperature 57 °F 48 °F 51 °F (1999)
Degree Days  
Heating Degree Days 2    
Growing Degree Days 13 (Base 50)    
Moisture  
Dew Point 56 °F    
Average Humidity 86    
Maximum Humidity 94    
Minimum Humidity 77    
Precipitation  
Precipitation 0.00 in - - ()
Sea Level Pressure  
Sea Level Pressure 29.79 in    
Wind  
Wind Speed 5 mph ()    
Max Wind Speed 17 mph    
Max Gust Speed -    
Visibility 5.3 miles    
Events Rain    
Averages and records for this station are not official NWS values.
T = Trace of Precipitation, MM = Missing Value Source: Averaged Metar Reports

Daily Weather History Graph

Daily Weather History Graph

Search for Another Location

Airport:

Trip Planner

Search our weather history database for the weather conditions in past years. The results will help you decide how hot, cold, wet, or windy it might be!

Date:

Astronomy

Oct. 23, 2012 Rise Set
Actual Time 6:10 AM JST 5:13 PM JST
Civil Twilight 5:44 AM JST 5:39 PM JST
Nautical Twilight 5:15 AM JST 6:09 PM JST
Astronomical Twilight 4:46 AM JST 6:38 PM JST
Moon 1:21 PM JST (10/23) No Moon Set
Length of Visible Light 11h 54m
Length of Day
11h 03m
First Quarter, 61% of the Moon is Illuminated
Oct 23
First Quarter
Oct 30
Full
Nov 7
Last Quarter
Nov 14
New
Nov 20
First Quarter

Hourly Weather History & Observations

Time (JST) Temp. Dew Point Humidity Pressure Visibility Wind Dir Wind Speed Gust Speed Precip Events Conditions
5:00 AM 68.0 °F 64.4 °F 88% 29.74 in 6.2 mi Calm Calm - N/A Rain Light Rain Showers
6:00 AM 68.0 °F 64.4 °F 88% 29.71 in 6.2 mi SE 3.5 mph - N/A Rain Light Rain Showers
6:48 AM 68.0 °F 64.4 °F 88% 29.68 in 6.2 mi SE 5.8 mph - N/A Rain Heavy Rain Showers
7:00 AM 69.8 °F 64.4 °F 83% 29.71 in 6.2 mi South 5.8 mph - N/A Rain Heavy Rain Showers
7:13 AM 64.4 °F 60.8 °F 88% 29.74 in 2.5 mi NW 11.5 mph - N/A Rain Heavy Rain Showers
7:19 AM 64.4 °F 60.8 °F 88% 29.74 in 1.6 mi NW 11.5 mph - N/A Rain Heavy Rain Showers
7:23 AM 64.4 °F 60.8 °F 88% 29.74 in 1.6 mi WNW 10.4 mph - N/A Rain Heavy Rain Showers
8:00 AM 59.0 °F 53.6 °F 82% 29.77 in 6.2 mi NNW 17.3 mph - N/A Rain Light Rain Showers
8:36 AM 59.0 °F 51.8 °F 77% 29.83 in 6.2 mi NW 5.8 mph - N/A Rain Light Rain Showers
9:00 AM 57.2 °F 53.6 °F 88% 29.86 in 6.2 mi NNW 6.9 mph - N/A Rain Light Rain Showers
10:00 AM 57.2 °F 51.8 °F 82% 29.86 in 6.2 mi North 8.1 mph - N/A Rain Light Rain Showers
11:00 AM 57.2 °F 53.6 °F 88% 29.86 in 5.6 mi Variable 2.3 mph - N/A Rain Light Rain Showers
11:43 AM 57.2 °F 53.6 °F 88% 29.83 in 5.6 mi Variable 2.3 mph - N/A Rain Rain Showers
12:00 PM 57.2 °F 53.6 °F 88% 29.80 in 5.0 mi Variable 2.3 mph - N/A Rain Rain Showers
1:00 PM 57.2 °F 55.4 °F 94% 29.80 in 4.3 mi Variable 1.2 mph - N/A Rain Light Rain Showers
1:17 PM 57.2 °F 55.4 °F 94% 29.77 in 3.7 mi Variable 1.2 mph - N/A Rain Rain Showers
2:00 PM 59.0 °F 55.4 °F 88% 29.77 in 6.2 mi West 4.6 mph - N/A Rain Light Rain Showers
3:00 PM 59.0 °F 55.4 °F 88% 29.77 in 6.2 mi NW 4.6 mph - N/A   Mostly Cloudy
4:00 PM 60.8 °F 53.6 °F 77% 29.80 in 6.2 mi NW 6.9 mph - N/A   Scattered Clouds
5:00 PM 59.0 °F 53.6 °F 82% 29.83 in 6.2 mi NW 5.8 mph - N/A   Scattered Clouds
6:00 PM 59.0 °F 53.6 °F 82% 29.86 in 6.2 mi WNW 3.5 mph - N/A   Mostly Cloudy
7:00 PM 59.0 °F 53.6 °F 82% 29.89 in 6.2 mi WNW 6.9 mph - N/A   Mostly Cloudy
8:00 PM 59.0 °F 51.8 °F 77% 29.92 in 6.2 mi NW 5.8 mph - N/A   Mostly Cloudy